Regional Weather Roundup
Issued by NWS

Home | Current Version | Previous Version | Text Only | Print | Product List | Glossary On
Versions: 1 2 3 4 5 6 7 8 9 10 11 12 13 14 15 16 17 18 19 20 21 22 23 24 25 26 27 28 29 30 31 32 33 34 35 36 37 38 39 40 41 42 43 44 45 46 47 48 49 50
000
ASUS43 KIND 261409
RWRIN

WEATHER ROUNDUP FOR INDIANA
NATIONAL WEATHER SERVICE INDIANAPOLIS IN
1000 AM EDT SUN MAR 26 2017

NOTE: "FAIR" INDICATES FEW OR NO CLOUDS BELOW 12,000 FEET WITH NO
SIGNIFICANT WEATHER AND/OR OBSTRUCTIONS TO VISIBILITY.

* - STATION DOES NOT REPORT WEATHER SUCH AS PRECIPITATION OR FOG.

+ - STATION NOT QUALITY CONTROLLED BY THE NATIONAL WEATHER SERVICE.
    USE DATA WITH CAUTION...ESPECIALLY DEWPOINT AND RELATIVE
    HUMIDITY OBSERVATIONS.

INZ001>003-010>013-019-020-261500-
NORTHWEST INDIANA

CITY           SKY/WX    TMP DP  RH WIND       PRES   REMARKS
GARY /AIRPORT/ DRIZZLE   54  54 100 SE14      29.87S
KNOX *+        CLOUDY    52  46  82 SE7       29.89F
LA PORTE +     LGT RAIN  49  49  99 SE5       29.90F
MICHIGAN CITY+ LGT RAIN  50  50 100 SE7       29.89F
MONTICELLO +   CLOUDY    56  54  95 SE6       29.89S
RENSSELAER +   DRIZZLE   55  55 100 S9        29.87F
VALPARAISO     LGT RAIN  53  53 100 SE7       29.88F FOG

$$

LMZ046-743>745-261500-
SOUTHERN LAKE MICHIGAN

STATION/POSITION TIME  TEMP    WIND        PRES    WAVE
                       AIR SEA DIR/SP/G            HT
                 (UTC) (F)     (DEG/KT/KT) (MB)    (FT)
BURNS HARBOR     1340   53     140/  8/ 15 1012.2S
MICHIGAN CITY    1340   51     130/  9/ 10   N/A

$$

INZ004-005-014>016-021>024-261500-
NORTH CENTRAL INDIANA

CITY           SKY/WX    TMP DP  RH WIND       PRES   REMARKS
ELKHART        DRIZZLE   46  46 100 E7        29.91F
GOSHEN         CLOUDY    47  44  90 SE14      29.91F FOG
LOGANSPORT +   DRIZZLE   55  55 100 S10       29.91S
PERU/GRISSOM   LGT RAIN  56  56 100 S9        29.89F
ROCHESTER +    RAIN      55  55 100 SE7       29.91F
SOUTH BEND     LGT RAIN  47  32  56 E8        29.91F
WARSAW +       LGT RAIN  46  46 100 SE3       29.92F

$$

INZ006>009-017-018-025>027-261500-
NORTHEAST INDIANA

CITY           SKY/WX    TMP DP  RH WIND       PRES   REMARKS
ANGOLA *+      CLOUDY    41  41 100 SE9       29.96S
AUBURN +       RAIN      41  39  93 E9        29.97S
FORT WAYNE     HVY RAIN  44  42  93 E7        29.95F FOG
HUNTINGTON +   LGT RAIN  45  44  96 E5        29.95R
KENDALLVILLE + LGT RAIN  41  41 100 SE9       29.95S

$$

INZ028-029-035-036-043>045-051>053-261500-
WEST CENTRAL INDIANA

CITY           SKY/WX    TMP DP  RH WIND       PRES   REMARKS
CRAWFORDSVL +  LGT RAIN  55  55 100 S9        29.91R
GREENCASTLE +  LGT RAIN  55  54  94 S7        29.92S
LAFAYETTE      CLOUDY    57  56  96 S8        29.89S
TERRE HAUTE    CLOUDY    58  55  90 S12       29.90S

$$

INZ030>032-037>040-046>048-054>057-064-065-261500-
CENTRAL INDIANA

CITY           SKY/WX    TMP DP  RH WIND       PRES   REMARKS
CP ATTERBURY + CLOUDY    59  55  88 S8        29.95S
COLUMBUS       CLOUDY    57  57 100 S9        29.96R
FISHERS *+     CLOUDY    55  55 100 S13       29.92F
FRANKFORT +    CLOUDY    59  57  92 S7        29.92S
GREENWOOD *+   CLOUDY    58  57  96 S12       29.94S
INDIANAPOLIS   CLOUDY    58  55  90 S15       29.92S
-EAGLE CREEK   CLOUDY    58  55  90 S9        29.91S
KOKOMO +       LGT RAIN  56  55  97 S10       29.92F
MARION +       CLOUDY    56  55  96 S7        29.94S
MT COMFORT *+  CLOUDY    57  55  94 S13       29.93S
SHELBYVILLE    CLOUDY    59  54  83 S14       29.94S
ZIONSVILLE +   CLOUDY    55  54  95 S7        29.92F

$$

INZ033-034-041-042-049-050-058-059-261500-
EAST CENTRAL INDIANA

CITY           SKY/WX    TMP DP  RH WIND       PRES   REMARKS
MUNCIE         CLOUDY    59  55  87 S10       29.94S
RICHMOND +     CLOUDY    55  54  94 S13       29.98S

$$

INZ060-061-067>069-081>083-085>088-261500-
SOUTHWEST INDIANA

CITY           SKY/WX    TMP DP  RH WIND       PRES   REMARKS
EVANSVILLE     CLOUDY    59  55  87 S13       29.94S
HUNTINGBURG *+ LGT RAIN  57  55  94 S8        29.95S
WASHINGTON +   DRIZZLE   57  55  94 CALM      29.93S

$$

INZ062-063-066-070>080-084-089>092-261500-
SOUTH CENTRAL AND SOUTHEAST INDIANA

CITY           SKY/WX    TMP DP  RH WIND       PRES   REMARKS
BLOOMINGTON    CLOUDY    57  54  89 S9        29.93S
MADISON *+     CLOUDY    55  54  94 SE7       30.00S
NORTH VERNON + CLOUDY   N/A N/A N/A S9        29.97
SEYMOUR +      CLOUDY    59  57  94 S8        29.96S

$$




USA.gov is the U.S. government's official web portal to all federal, state and local government web resources and services.